Weather History for KANK - February, 2013

Change the Weather History Date:

Tuesday, February 5, 2013

  Actual Average (KGUC) Record (KGUC)
Temperature  
Mean Temperature 38 °F -  
Max Temperature 54 °F 24 °F 44 °F (2001)
Min Temperature 22 °F 0 °F -16 °F (2002)
Degree Days  
Heating Degree Days 27    
Moisture  
Dew Point 9 °F    
Average Humidity 33    
Maximum Humidity 53    
Minimum Humidity 13    
Precipitation  
Precipitation 0.00 in - - ()
Sea Level Pressure  
Sea Level Pressure 30.11 in    
Wind  
Wind Speed 6 mph (West)    
Max Wind Speed 15 mph    
Max Gust Speed 20 mph    
Visibility 10 miles    
Events      
Averages and records for this station are not official NWS values.
T = Trace of Precipitation, MM = Missing Value Source: NWS Daily Summary

Daily Weather History Graph

Daily Weather History Graph

Search for Another Location

Airport or City:

Trip Planner

Search our weather history database for the weather conditions in past years. The results will help you decide how hot, cold, wet, or windy it might be!

Date:

Astronomy

Feb. 05, 2013 Rise Set
Actual Time 7:05 AM MST 5:31 PM MST
Civil Twilight 6:37 AM MST 5:59 PM MST
Nautical Twilight 6:06 AM MST 6:30 PM MST
Astronomical Twilight 5:35 AM MST 7:01 PM MST
Moon 2:49 AM MST (2/5) 12:52 PM MST (2/5)
Length of Visible Light 11h 21m
Length of Day
10h 25m
Waning Crescent, 26% of the Moon is Illuminated
Feb 5
Waning Crescent
Feb 10
New
Feb 17
First Quarter
Feb 25
Full
Mar 4
Last Quarter

Hourly Weather History & Observations

Time (MST) Temp. Windchill Dew Point Humidity Pressure Visibility Wind Dir Wind Speed Gust Speed Precip Events Conditions
12:15 AM 35.4 °F 31.5 °F 9.0 °F 33% 30.12 in 10.0 mi SW 4.6 mph - N/A   Clear
12:35 AM 35.6 °F 31.7 °F 8.4 °F 32% 30.12 in 10.0 mi South 4.6 mph - N/A   Clear
12:55 AM 34.7 °F 28.8 °F 7.2 °F 32% 30.12 in 10.0 mi West 6.9 mph - N/A   Clear
1:15 AM 30.6 °F 22.4 °F 8.6 °F 40% 30.11 in 10.0 mi NNW 9.2 mph - N/A   Clear
1:35 AM 30.6 °F 23.1 °F 8.4 °F 39% 30.11 in 10.0 mi WNW 8.1 mph - N/A   Clear
1:55 AM 31.1 °F 23.7 °F 8.4 °F 39% 30.12 in 10.0 mi NW 8.1 mph - N/A   Clear
2:15 AM 33.1 °F 24.4 °F 7.9 °F 35% 30.14 in 10.0 mi WNW 11.5 mph - N/A   Clear
2:35 AM 32.9 °F 27.5 °F 7.5 °F 35% 30.15 in 10.0 mi NW 5.8 mph - N/A   Clear
2:55 AM 32.0 °F 27.5 °F 7.7 °F 36% 30.15 in 10.0 mi West 4.6 mph - N/A   Clear
3:15 AM 28.2 °F 22.0 °F 7.7 °F 42% 30.15 in 10.0 mi NW 5.8 mph - N/A   Clear
3:35 AM 29.5 °F 21.8 °F 7.7 °F 40% 30.15 in 10.0 mi West 8.1 mph - N/A   Clear
3:55 AM 26.6 °F 18.2 °F 7.7 °F 45% 30.15 in 10.0 mi West 8.1 mph - N/A   Clear
4:15 AM 25.9 °F 17.4 °F 8.2 °F 47% 30.15 in 10.0 mi West 8.1 mph - N/A   Clear
4:35 AM 25.3 °F 17.6 °F 8.2 °F 48% 30.15 in 10.0 mi West 6.9 mph - N/A   Clear
4:55 AM 27.1 °F 19.7 °F 8.4 °F 45% 30.15 in 10.0 mi WNW 6.9 mph - N/A   Clear
5:15 AM 29.7 °F 22.8 °F 9.0 °F 42% 30.15 in 10.0 mi NW 6.9 mph - N/A   Clear
5:35 AM 25.0 °F 14.8 °F 8.4 °F 50% 30.16 in 10.0 mi WSW 10.4 mph - N/A   Clear
5:55 AM 25.3 °F 16.0 °F 8.2 °F 48% 30.17 in 10.0 mi West 9.2 mph - N/A   Clear
6:15 AM 22.6 °F 15.3 °F 7.7 °F 53% 30.17 in 10.0 mi West 5.8 mph - N/A   Clear
6:35 AM 24.3 °F 16.3 °F 8.4 °F 51% 30.17 in 10.0 mi WNW 6.9 mph - N/A   Clear
6:55 AM 26.2 °F 20.7 °F 8.2 °F 47% 30.18 in 10.0 mi NNW 4.6 mph - N/A   Clear
7:15 AM 26.1 °F 17.6 °F 8.6 °F 48% 30.19 in 10.0 mi WNW 8.1 mph - N/A   Clear
7:35 AM 27.1 °F 20.7 °F 8.4 °F 45% 30.19 in 10.0 mi NW 5.8 mph - N/A   Clear
7:55 AM 29.3 °F 24.3 °F 9.5 °F 44% 30.19 in 10.0 mi NNW 4.6 mph - N/A   Clear
8:15 AM 31.1 °F 26.4 °F 8.6 °F 39% 30.19 in 10.0 mi NW 4.6 mph - N/A   Clear
8:35 AM 31.5 °F 28.1 °F 9.1 °F 39% 30.19 in 10.0 mi North 3.5 mph - N/A   Clear
8:55 AM 32.0 °F 28.7 °F 9.5 °F 39% 30.19 in 10.0 mi NNW 3.5 mph - N/A   Clear
9:15 AM 33.6 °F - 9.3 °F 36% 30.20 in 10.0 mi Calm Calm - N/A   Clear
9:35 AM 36.7 °F - 9.5 °F 32% 30.20 in 10.0 mi Calm Calm - N/A   Clear
9:55 AM 38.7 °F 36.3 °F 8.6 °F 29% 30.20 in 10.0 mi NNW 3.5 mph - N/A   Clear
10:15 AM 40.3 °F - 8.8 °F 27% 30.19 in 10.0 mi Calm Calm - N/A   Clear
10:35 AM 42.4 °F 38.8 °F 8.6 °F 25% 30.19 in 10.0 mi NNE 5.8 mph - N/A   Clear
10:55 AM 44.8 °F 42.4 °F 8.6 °F 23% 30.18 in 10.0 mi NE 4.6 mph - N/A   Clear
11:15 AM 46.0 °F - 8.2 °F 21% 30.17 in 10.0 mi Calm Calm - N/A   Clear
11:35 AM 47.5 °F - 7.5 °F 20% 30.15 in 10.0 mi Calm Calm - N/A   Clear
11:55 AM 47.7 °F - 7.3 °F 19% 30.14 in 10.0 mi Calm Calm - N/A   Clear
12:15 PM 49.3 °F - 6.1 °F 17% 30.12 in 10.0 mi Calm Calm - N/A   Clear
12:35 PM 51.1 °F - 5.5 °F 16% 30.10 in 10.0 mi North 4.6 mph - N/A   Clear
12:55 PM 51.8 °F - 5.9 °F 16% 30.09 in 10.0 mi North 6.9 mph - N/A   Clear
1:15 PM 52.3 °F - 5.0 °F 15% 30.08 in 10.0 mi WNW 4.6 mph - N/A   Clear
1:35 PM 52.5 °F - 5.4 °F 15% 30.07 in 10.0 mi NW 5.8 mph - N/A   Clear
1:55 PM 54.7 °F - 3.9 °F 13% 30.07 in 10.0 mi WSW 4.6 mph - N/A   Clear
2:15 PM 54.7 °F - 4.5 °F 13% 30.06 in 10.0 mi WSW 6.9 mph - N/A   Clear
2:35 PM 54.7 °F - 6.6 °F 15% 30.06 in 10.0 mi SW 8.1 mph - N/A   Clear
2:55 PM 54.5 °F - 8.4 °F 16% 30.05 in 10.0 mi SW 11.5 mph 17.3 mph N/A   Clear
3:15 PM 53.8 °F - 8.6 °F 16% 30.05 in 10.0 mi SSW 11.5 mph 17.3 mph N/A   Clear
3:35 PM 53.8 °F - 8.6 °F 16% 30.05 in 10.0 mi SSW 9.2 mph 17.3 mph N/A   Clear
3:55 PM 53.4 °F - 9.0 °F 17% 30.05 in 10.0 mi SW 9.2 mph - N/A   Clear
4:15 PM 52.3 °F - 9.3 °F 18% 30.05 in 10.0 mi SSW 15.0 mph 18.4 mph N/A   Clear
4:35 PM 51.1 °F - 9.5 °F 19% 30.05 in 10.0 mi SSW 10.4 mph 19.6 mph N/A   Clear
4:55 PM 49.3 °F - 10.0 °F 21% 30.05 in 10.0 mi SSW 11.5 mph 16.1 mph N/A   Clear
5:15 PM 47.8 °F - 9.5 °F 21% 30.05 in 10.0 mi SSW 11.5 mph 16.1 mph N/A   Clear
5:35 PM 45.7 °F 41.0 °F 9.1 °F 23% 30.05 in 10.0 mi SW 9.2 mph - N/A   Clear
5:55 PM 44.6 °F 39.2 °F 9.5 °F 24% 30.06 in 10.0 mi West 10.4 mph - N/A   Clear
6:15 PM 45.1 °F 43.7 °F 10.4 °F 24% 30.06 in 10.0 mi SSE 3.5 mph - N/A   Clear
6:35 PM 44.8 °F 43.3 °F 9.7 °F 24% 30.07 in 10.0 mi South 3.5 mph - N/A   Clear
6:55 PM 40.8 °F 38.8 °F 9.3 °F 27% 30.07 in 10.0 mi SSE 3.5 mph - N/A   Clear
7:15 PM 37.6 °F 35.1 °F 8.6 °F 30% 30.08 in 10.0 mi South 3.5 mph - N/A   Clear
7:35 PM 35.8 °F - 8.4 °F 32% 30.07 in 10.0 mi Calm Calm - N/A   Clear
7:55 PM 36.3 °F - 9.7 °F 33% 30.07 in 10.0 mi Calm Calm - N/A   Clear
8:15 PM 35.2 °F 30.3 °F 8.8 °F 33% 30.07 in 10.0 mi SSE 5.8 mph - N/A   Clear
8:35 PM 34.3 °F 31.4 °F 9.7 °F 36% 30.07 in 10.0 mi SSE 3.5 mph - N/A   Clear
8:55 PM 34.5 °F - 9.7 °F 36% 30.07 in 10.0 mi Calm Calm - N/A   Clear
9:15 PM 34.2 °F - 9.5 °F 36% 30.07 in 10.0 mi Calm Calm - N/A   Clear
9:35 PM 31.8 °F 28.5 °F 9.5 °F 39% 30.07 in 10.0 mi WNW 3.5 mph - N/A   Clear
9:55 PM 30.9 °F 27.5 °F 10.6 °F 43% 30.07 in 10.0 mi NNW 3.5 mph - N/A   Clear
10:15 PM 32.5 °F 28.1 °F 12.4 °F 43% 30.07 in 10.0 mi North 4.6 mph - N/A   Clear
10:35 PM 32.2 °F 26.7 °F 12.7 °F 45% 30.07 in 10.0 mi NW 5.8 mph - N/A   Clear
10:55 PM 31.8 °F 25.4 °F 13.5 °F 47% 30.07 in 10.0 mi North 6.9 mph - N/A   Clear
11:15 PM 31.1 °F 25.4 °F 13.1 °F 47% 30.06 in 10.0 mi North 5.8 mph - N/A   Clear
11:35 PM 30.9 °F - 12.4 °F 46% 30.06 in 10.0 mi Calm Calm - N/A   Clear
11:55 PM 31.8 °F - 13.5 °F 47% 30.06 in 10.0 mi Calm Calm - N/A   Clear